sat.trackr.live / text

‹ back to catalog

STARLINK-37054

NORAD 68082 · 2026-042P

PAYLOAD ACTIVE UNKNOWN

§ Identity

Operator
Country
US
Launch date
2026-03-04
Launch site
AFETR
Launch vehicle
Mass (kg)
RCS (m²)

Purposes: comms

External: N2YO · Heavens-Above · Gunter

§ Orbital elements

Epoch: 2026-05-24T20:07:47.237088Z

Period
93.85 min
Inclination
53.1588°
Eccentricity
0.0001206
Mean motion
15.34398469 rev/d
Perigee alt
461.9 km
Apogee alt
463.5 km
Semi-major
6,840.8 km
B*
5.7439e-4
RAAN
184.3130°
Arg perigee
84.9610°
Mean anomaly
275.1531°
Rev number
1,397

§ Raw data

STARLINK-370541 68082U 26042P   26144.83874117  .00019079  00000+0  57439-3 0  99902 68082  53.1588 184.3130 0001206  84.9610 275.1531 15.34398469 13979

JSON: /api/v1/satellites/68082 · /tle

For live sub-satellite position, see the globe view (requires WebGL).

§ Visibility from observer

Set your observer location to see the next 7 days of passes ≥ 10°. The values pass through the URL so the page stays shareable.

No JS? Fill the form by hand. The geolocation button needs JavaScript.